Regional Weather Roundup
Issued by NWS

Home | Current Version | Previous Version | Graphics & Text | Print | Product List | Glossary On
Versions: 1 2 3 4 5 6 7 8 9 10 11 12 13 14 15 16 17 18 19 20 21 22 23 24 25 26 27 28 29 30 31 32 33 34 35 36 37 38 39 40 41 42 43 44 45 46 47 48 49 50
000
ASUS45 KABQ 301001
RWRNM
NEW MEXICO REGIONAL WEATHER ROUNDUP
NATIONAL WEATHER SERVICE ALBUQUERQUE NM
400 AM MDT TUE JUN 30 2015

NOTE: "FAIR" MEANS FEW OR NO CLOUDS BELOW 12,000 FEET AGL WITH NO
       SIGNIFICANT WEATHER OR OBSTRUCTIONS TO VISION.

      THIS PRODUCT IS RELEASED AS TWO VERSIONS.  ONE VERSION NEAR
      THE TOP OF THE HOUR CONTAINING PRELIMINARY DATA FROM ALBUQUERQUE
      AND OTHER STATIONS.  A FINAL VERSION WITH ADDITIONAL DATA IS
      ISSUED ABOUT 10 MINUTES AFTER THE HOUR.

NMZ501-503-504-510>518-301100-
NORTHWEST PLATEAU/NORTHCENTRAL MOUNTAINS

CITY           SKY/WX    TMP DP  RH WIND       PRES   REMARKS
FARMINGTON     CLEAR     70  48  45 E12       30.18S
SANTA FE       PTCLDY    60  47  61 SE3       30.32S
TAOS           PTCLDY    55  39  54 E5        30.38S
ANGEL FIRE     FAIR      47  46  97 CALM      30.48F

$$
NMZ402-403-502-505>509-301100-
WESTCENTRAL MOUNTAINS/SOUTHWEST MOUNTAINS

CITY           SKY/WX    TMP DP  RH WIND       PRES   REMARKS
GALLUP         PTCLDY    59  46  62 CALM      30.27S
GRANTS         MOCLDY    66  47  51 S9        30.32S
SILVER CITY    RAIN      64  59  82 CALM      30.25R

$$
NMZ407-409-411-412-301100-
SOUTHERN DESERTS

CITY           SKY/WX    TMP DP  RH WIND       PRES   REMARKS
LORDSBURG      FAIR      68  59  73 CALM      30.12R
DEMING         CLOUDY    72  57  59 W5        30.14S
ALAMOGORDO     MOCLDY    70  54  56 N8        30.14S
T OR C         CLOUDY    70  61  73 NW8       30.18F

$$
NMZ519>523-301100-
CENTRAL VALLEYS/CENTRAL HIGHLANDS

CITY           SKY/WX    TMP DP  RH WIND       PRES   REMARKS
ALBUQUERQUE    PTCLDY    73  48  41 E14       30.23R
DOUBLE EAGLE   CLEAR     64  47  54 W9        30.28S
MORIARTY ARPT  FAIR      53  48  83 CALM      30.32F
CLINES CORNERS PTCLDY    59  49  69 E5        30.35F
BELEN          PTSUNNY   72  48  43 S12       30.22S
SOCORRO        NOT AVBL

$$
NMZ524>526-539-540-301100-
SOUTHCENTRAL MOUNTAINS

CITY           SKY/WX    TMP DP  RH WIND       PRES   REMARKS
RUIDOSO        NOT AVBL

$$
NMZ527>531-301100-
NORTHEAST HIGHLANDS/NORTHEAST PLAINS

CITY           SKY/WX    TMP DP  RH WIND       PRES   REMARKS
LAS VEGAS      PTCLDY    57  51  80 CALM      30.35F
RATON          PTCLDY    53  51  93 E7        30.30F
CLAYTON        CLEAR     61  53  75 W9        30.21F

$$
NMZ532>537-301100-
EASTCENTRAL PLAINS

CITY           SKY/WX    TMP DP  RH WIND       PRES   REMARKS
TUCUMCARI      CLEAR     64  55  72 NW9       30.14F
CANNON AFB     NOT AVBL
CLOVIS AIRPORT CLEAR     59  55  88 SE12      30.18R

$$
NMZ028-029-538-301100-
SOUTHEAST PLAINS

CITY           SKY/WX    TMP DP  RH WIND       PRES   REMARKS
ROSWELL        CLEAR     67  62  84 N7        30.10R
ARTESIA        CLEAR     66  64  94 N5        30.11R
CARLSBAD       CLEAR     66  64  93 E7        30.09R
HOBBS          MOCLDY    66  66 100 E16G23    30.17R


$$


USA.gov is the U.S. government's official web portal to all federal, state and local government web resources and services.